Simultaneous Nadir Overpasses (SNOs) Predictions

Prediction of SNOs between LANDSAT-8 and METOP-A Satellite Orbit:

Table of predicted SNOs for the next 14.0 days since TLE Epoch: 6/20/2014
Index Date (LANDSAT-8) Time (LANDSAT-8) Lat,Lon (LANDSAT-8) SZA (LANDSAT-8 ) Date (METOP-A) Time (METOP-A) Lat,Lon (METOP-A) SZA (METOP-A ) Distance(km) Time Diff (sec)
1 06/22/2014 17:43:00 -81.09, 133.70 120.26 06/22/2014 17:42:22 -81.09, 133.71 120.28 0.20 38
2 06/22/2014 18:32:25 81.12, -58.25 59.80 06/22/2014 18:33:01 81.12, -58.18 59.83 1.29 36
3 06/25/2014 13:17:15 -81.10,-159.75 120.21 06/25/2014 13:16:48 -81.09,-159.86 120.24 2.14 27
4 06/25/2014 14:06:40 81.12, 8.28 59.85 06/25/2014 14:07:27 81.12, 8.20 59.86 1.44 47
5 06/28/2014 08:51:29 -81.10, -93.23 120.11 06/28/2014 08:51:12 -81.11, -93.10 120.10 2.32 17
6 06/28/2014 09:40:54 81.13, 74.77 59.95 06/28/2014 09:41:51 81.13, 74.93 60.00 2.66 57
7 07/01/2014 04:25:44 -81.11, -26.76 119.96 07/01/2014 04:25:38 -81.10, -26.74 119.96 0.37 6
8 07/01/2014 05:15:09 81.13, 141.22 60.10 07/01/2014 05:16:17 81.13, 141.23 60.13 0.28 68
9 07/03/2014 23:10:33 81.08,-128.40 60.18 07/03/2014 23:09:25 81.07,-128.53 60.13 2.34 68




NCC Satellite Simultaneous Nadir Overpasses (SNOs) Prediction Service
